Location: Newark
(49.7314°N, 3.6506°E)
Time: 22:02:58
(UTC+00:00)

Envisat - Visible Passes

Search period start: 20 September 2020 00:00
Search period end: 30 September 2020 00:00
Orbit: 764 x 766 km, 98.1° (Epoch: 20 September)

Date Brightness Start Highest point End Pass type
(mag) Time Alt. Az. Time Alt. Az. Time Alt. Az.
20 Sep 5.8 04:55:41 10° NE 04:59:47 24° E 05:03:51 10° SE visible
21 Sep 6.5 04:20:42 10° ENE 04:22:30 12° E 04:24:17 10° ESE visible
22 Sep 6.2 18:20:54 10° SW 18:24:06 17° W 18:27:20 10° NW visible
23 Sep 6.0 04:44:38 10° NE 04:48:18 20° E 04:51:57 10° SE visible
25 Sep 6.0 18:08:52 10° SW 18:12:37 20° W 18:16:22 10° NW visible
26 Sep 6.2 04:33:43 10° NE 04:36:48 16° E 04:39:52 10° SE visible
27 Sep 6.5 18:36:20 10° WSW 18:38:24 12° W 18:40:28 10° WNW visible
28 Sep 5.6 04:58:19 10° NE 05:02:32 26° E 05:06:44 10° SSE visible
28 Sep 5.7 17:56:58 10° SSW 18:01:08 25° W 18:05:18 10° NW visible
29 Sep 6.4 04:23:03 10° ENE 04:25:17 13° E 04:27:30 10° ESE visible
